Wichita Falls, TX

6:12 PM CDT on April 28, 2017 (GMT -0500)
Sheppard Air Force Base-Wichita Falls Municipal

Weather History for KSPS - March, 2013

Change the Weather History Date:

Tuesday, March 26, 2013

  Actual Average Record
Temperature  
Mean Temperature 41 °F 57 °F  
Max Temperature 59 °F 70 °F 92 °F (1956)
Min Temperature 22 °F 44 °F 19 °F (1955)
Degree Days  
Heating Degree Days 24 9  
Month to date heating degree days 350 316  
Since 1 July heating degree days 2566 2762  
Cooling Degree Days 0 1  
Month to date cooling degree days 10 12  
Year to date cooling degree days 15 15  
Moisture  
Dew Point 17 °F    
Average Humidity 44    
Maximum Humidity 68    
Minimum Humidity 19    
Precipitation  
Precipitation 0.00 in 0.06 in 2.10 in (1898)
Month to date precipitation 0.29 1.88  
Year to date precipitation 2.97 4.77  
Snow  
Snow 0.00 in 0.00 in - ()
Month to date snowfall 0.0 0.5  
Since 1 July snowfall 3.5 3.9  
Snow Depth -    
Sea Level Pressure  
Sea Level Pressure 30.37 in    
Wind  
Wind Speed 8 mph (SSE)    
Max Wind Speed 17 mph    
Max Gust Speed 26 mph    
Visibility 10 miles    
Events      
T = Trace of Precipitation, MM = Missing Value Source: NWS Daily Summary

Daily Weather History Graph

Daily Weather History Graph

Search for Another Location

Airport or City:

Trip Planner

Search our weather history database for the weather conditions in past years. The results will help you decide how hot, cold, wet, or windy it might be!

Date:

Astronomy

Mar. 26, 2013 Rise Set
Actual Time 7:29 AM CDT 7:50 PM CDT
Civil Twilight 7:04 AM CDT 8:15 PM CDT
Nautical Twilight 6:34 AM CDT 8:44 PM CDT
Astronomical Twilight 6:05 AM CDT 9:14 PM CDT
Moon 7:28 PM CDT (3/26) 6:45 AM CDT (3/26)
Length of Visible Light 13h 11m
Length of Day
12h 21m
Waxing Gibbous, 99% of the Moon is Illuminated
Mar 26
Waxing Gibbous
Mar 27
Full
Apr 2
Last Quarter
Apr 10
New
Apr 18
First Quarter

Hourly Weather History & Observations

Time (CDT) Temp. Windchill Dew Point Humidity Pressure Visibility Wind Dir Wind Speed Gust Speed Precip Events Conditions
12:52 AM 36.0 °F - 14.0 °F 41% 30.41 in 10.0 mi Calm Calm - N/A   Clear
1:52 AM 30.9 °F - 16.0 °F 54% 30.42 in 10.0 mi Calm Calm - N/A   Clear
2:52 AM 33.1 °F 28.7 °F 15.1 °F 48% 30.42 in 10.0 mi NNW 4.6 mph - N/A   Clear
3:52 AM 28.0 °F 22.8 °F 16.0 °F 61% 30.42 in 10.0 mi NNW 4.6 mph - N/A   Clear
4:52 AM 30.0 °F - 15.1 °F 54% 30.42 in 10.0 mi Calm Calm - N/A   Clear
5:52 AM 25.0 °F 18.1 °F 15.1 °F 66% 30.43 in 10.0 mi North 5.8 mph - N/A   Clear
6:52 AM 23.0 °F 15.8 °F 14.0 °F 68% 30.45 in 10.0 mi North 5.8 mph - N/A   Clear
7:52 AM 25.0 °F 18.1 °F 16.0 °F 69% 30.47 in 10.0 mi North 5.8 mph - N/A   Clear
8:52 AM 30.0 °F - 18.0 °F 61% 30.50 in 10.0 mi Calm Calm - N/A   Clear
9:52 AM 37.9 °F 31.5 °F 18.0 °F 45% 30.49 in 10.0 mi ESE 9.2 mph - N/A   Clear
10:52 AM 42.1 °F 38.4 °F 17.1 °F 37% 30.50 in 10.0 mi Variable 5.8 mph - N/A   Clear
11:52 AM 45.0 °F 41.2 °F 16.0 °F 31% 30.48 in 10.0 mi SSW 6.9 mph - N/A   Clear
12:52 PM 50.0 °F - 17.1 °F 27% 30.44 in 10.0 mi SW 9.2 mph - N/A   Clear
1:52 PM 52.0 °F - 17.1 °F 25% 30.40 in 10.0 mi South 10.4 mph - N/A   Clear
2:52 PM 54.0 °F - 17.1 °F 23% 30.35 in 10.0 mi SSW 3.5 mph - N/A   Partly Cloudy
3:52 PM 55.9 °F - 18.0 °F 23% 30.32 in 10.0 mi South 4.6 mph - N/A   Partly Cloudy
4:52 PM 59.0 °F - 17.1 °F 20% 30.28 in 10.0 mi SE 9.2 mph - N/A   Clear
5:52 PM 59.0 °F - 17.1 °F 20% 30.25 in 10.0 mi SSE 10.4 mph - N/A   Clear
6:52 PM 57.9 °F - 17.1 °F 20% 30.24 in 10.0 mi South 11.5 mph - N/A   Clear
7:52 PM 53.1 °F - 18.0 °F 25% 30.23 in 10.0 mi SE 10.4 mph - N/A   Clear
8:52 PM 48.9 °F - 19.9 °F 32% 30.23 in 10.0 mi SE 10.4 mph - N/A   Clear
9:52 PM 48.9 °F - 23.0 °F 36% 30.24 in 10.0 mi SE 13.8 mph - N/A   Clear
10:52 PM 46.9 °F - 23.0 °F 39% 30.24 in 10.0 mi SE 15.0 mph - N/A   Clear
11:52 PM 45.0 °F 38.2 °F 23.0 °F 42% 30.23 in 10.0 mi SE 15.0 mph - N/A   Clear